Location: Songkhla
(7.2000°N, 100.6000°E)
Time: 08:26:54
(UTC+07:00)

Hubble Space Telescope - Visible Passes

Search period start: 19 January 2022 00:00
Search period end: 29 January 2022 00:00
Orbit: 534 x 538 km, 28.5° (Epoch: 18 January)

Date Brightness Start Highest point End Pass type
(mag) Time Alt. Az. Time Alt. Az. Time Alt. Az.
21 Jan 3.2 05:31:21 10° N 05:32:57 12° NNE 05:34:32 10° NE visible
21 Jan 3.8 20:47:47 10° SW 20:48:12 13° SW 20:48:12 13° SW visible
22 Jan 3.0 05:20:17 13° N 05:21:48 15° NNE 05:24:14 10° ENE visible
22 Jan 3.0 18:57:22 10° S 18:59:32 14° SSE 19:01:42 10° ESE visible
22 Jan 3.3 20:36:29 10° WSW 20:37:45 19° WSW 20:37:45 19° WSW visible
23 Jan 2.6 05:09:48 18° N 05:10:39 19° NNE 05:13:39 10° ENE visible
23 Jan 2.6 18:45:21 10° SSW 18:48:18 19° SSE 18:51:15 10° ESE visible
23 Jan 2.7 20:25:16 10° WSW 20:27:19 28° WSW 20:27:19 28° WSW visible
24 Jan 2.3 04:59:20 25° NNE 04:59:28 25° NNE 05:02:53 10° E visible
24 Jan 2.1 20:14:08 10° WSW 20:16:55 35° WNW 20:16:55 35° WNW visible
25 Jan 2.2 04:48:54 31° NE 04:48:54 31° NE 04:51:59 10° E visible
25 Jan 2.0 20:03:07 10° W 20:06:30 34° NW 20:06:30 34° NW visible
26 Jan 2.4 04:38:29 31° E 04:38:29 31° E 04:40:59 10° ESE visible
26 Jan 2.2 19:52:12 10° W 19:55:40 26° NNW 19:56:05 26° NNW visible
27 Jan 3.0 04:28:05 24° ESE 04:28:05 24° ESE 04:29:51 10° ESE visible
27 Jan 2.6 06:03:46 10° W 06:06:50 20° SSW 06:09:53 10° SSE visible
27 Jan 2.6 19:41:24 10° WNW 19:44:28 20° NNW 19:45:39 18° N visible
28 Jan 3.5 04:17:40 17° ESE 04:17:40 17° ESE 04:18:39 10° ESE visible
28 Jan 2.9 05:53:15 10° WSW 05:55:34 15° SSW 05:57:55 10° S visible
28 Jan 3.0 19:30:46 10° WNW 19:33:18 16° NNW 19:35:12 12° N visible
